TimeHST,TemperatureF,Dew PointF,Humidity,Sea Level PressureIn,VisibilityMPH,Wind Direction,Wind SpeedMPH,Gust SpeedMPH,PrecipitationIn,Events,Conditions,WindDirDegrees,DateUTC
12:53 AM,70.0,63.0,78,30.10,10.0,Variable,5.8,-,N/A,,Mostly Cloudy,0,2013-01-04 10:53:00
1:53 AM,71.1,63.0,75,30.09,10.0,Variable,4.6,-,N/A,,Overcast,0,2013-01-04 11:53:00
2:53 AM,72.0,62.1,71,30.08,10.0,ENE,5.8,-,N/A,,Overcast,60,2013-01-04 12:53:00
3:53 AM,70.0,62.1,76,30.08,10.0,Variable,5.8,-,N/A,,Scattered Clouds,0,2013-01-04 13:53:00
4:53 AM,70.0,62.1,76,30.08,10.0,Variable,5.8,-,N/A,,Partly Cloudy,0,2013-01-04 14:53:00
5:11 AM,69.8,62.6,78,30.06,10.0,Variable,4.6,-,N/A,,Partly Cloudy,0,2013-01-04 15:11:00
5:53 AM,70.0,62.1,76,30.09,10.0,Variable,6.9,-,N/A,,Clear,0,2013-01-04 15:53:00
6:53 AM,71.1,62.1,73,30.11,10.0,Variable,6.9,-,N/A,,Clear,0,2013-01-04 16:53:00
7:53 AM,71.1,63.0,75,30.13,10.0,ENE,6.9,16.1,N/A,,Clear,60,2013-01-04 17:53:00
8:53 AM,73.9,62.1,66,30.16,10.0,ENE,11.5,16.1,N/A,,Mostly Cloudy,70,2013-01-04 18:53:00
9:53 AM,75.0,63.0,66,30.17,10.0,ENE,8.1,19.6,N/A,,Mostly Cloudy,60,2013-01-04 19:53:00
10:53 AM,75.0,64.0,69,30.15,10.0,Variable,4.6,19.6,N/A,,Scattered Clouds,0,2013-01-04 20:53:00
11:53 AM,78.1,64.0,62,30.12,10.0,NE,13.8,23.0,N/A,,Scattered Clouds,50,2013-01-04 21:53:00
12:53 PM,80.1,62.1,54,30.09,10.0,East,9.2,21.9,N/A,,Scattered Clouds,80,2013-01-04 22:53:00
1:53 PM,78.1,62.1,58,30.06,10.0,ENE,11.5,27.6,N/A,,Mostly Cloudy,70,2013-01-04 23:53:00
2:53 PM,79.0,64.0,60,30.05,10.0,ENE,11.5,24.2,N/A,,Scattered Clouds,60,2013-01-05 00:53:00
3:53 PM,78.1,63.0,60,30.06,10.0,ENE,15.0,25.3,N/A,,Mostly Cloudy,70,2013-01-05 01:53:00
4:53 PM,75.0,64.0,69,30.08,10.0,ENE,8.1,27.6,N/A,,Mostly Cloudy,70,2013-01-05 02:53:00
5:53 PM,73.9,64.0,71,30.09,10.0,East,11.5,25.3,N/A,,Partly Cloudy,80,2013-01-05 03:53:00
6:53 PM,73.0,63.0,71,30.12,10.0,East,10.4,19.6,N/A,,Mostly Cloudy,80,2013-01-05 04:53:00
7:53 PM,72.0,63.0,73,30.14,10.0,ENE,8.1,16.1,N/A,,Mostly Cloudy,70,2013-01-05 05:53:00
8:53 PM,73.0,64.0,73,30.14,10.0,East,5.8,16.1,N/A,,Overcast,80,2013-01-05 06:53:00
9:53 PM,73.0,64.0,73,30.16,10.0,ENE,9.2,-,N/A,,Mostly Cloudy,70,2013-01-05 07:53:00
10:53 PM,73.0,63.0,71,30.15,10.0,ENE,9.2,24.2,N/A,,Scattered Clouds,70,2013-01-05 08:53:00
11:53 PM,73.0,63.0,71,30.14,10.0,ENE,13.8,26.5,N/A,,Partly Cloudy,60,2013-01-05 09:53:00